DW8108 Weather Reports


Display with metric or nautical units.
time (UTC)temp
F
wind
direction
speed
MPH
gust
MPH
rain 1hr
in
rain 24hr
in
rain mn
in
humidity
%
barometer
mb
20260507141535 51 0.0 12.0 0.00 0.00 0.00 64 1015.8
20260507140031 50 0.0 9.0 0.00 0.00 0.00 65 1016.0
20260507134529 48 0.0 9.0 0.00 0.00 0.00 65 1015.8
20260507133023 47 0.0 6.0 0.00 0.00 0.00 71 1015.8
20260507131527 44 0.0 5.0 0.00 0.00 0.00 77 1015.8
20260507130014 42 0.0 5.0 0.00 0.00 0.00 84 1015.8
20260507124515 41 0.0 5.0 0.00 0.00 0.00 88 1015.7
20260507123009 39 0.0 5.0 0.00 0.00 0.00 91 1015.8
20260507121507 37 0.0 4.0 0.00 0.00 0.00 92 1015.6
20260507120025 36 0.0 5.0 0.00 0.00 0.00 92 1015.6
20260507114506 35 0.0 4.0 0.00 0.00 0.00 91 1015.6
20260507113023 34 0.0 0.0 0.00 0.00 0.00 91 1015.5
20260507111504 35 0.0 0.0 0.00 0.00 0.00 91 1015.4
20260507110007 35 0.0 0.0 0.00 0.00 0.00 90 1015.5
20260507104602 35 0.0 0.0 0.00 0.00 0.00 91 1015.5
20260507103059 36 0.0 0.0 0.00 0.00 0.00 90 1015.4
20260507101603 36 0.0 0.0 0.00 0.00 0.00 90 1015.4
20260507100105 36 0.0 5.0 0.00 0.00 0.00 90 1015.4
20260507094559 36 0.0 5.0 0.00 0.00 0.00 90 1015.3
20260507093058 36 0.0 3.0 0.00 0.00 0.00 90 1015.4
20260507091557 36 0.0 4.0 0.00 0.00 0.00 89 1015.4
20260507090057 36 0.0 3.0 0.00 0.00 0.00 89 1015.4
20260507084601 36 0.0 1.0 0.00 0.00 0.00 89 1015.3
20260507083054 36 0.0 2.0 0.00 0.00 0.00 88 1015.3
20260507081553 36 0.0 0.0 0.00 0.00 0.00 88 1015.3
20260507080051 36 0.0 0.0 0.00 0.00 0.00 87 1015.4
20260507074550 36 0.0 0.0 0.00 0.00 0.00 86 1015.3
20260507073113 37 0.0 1.0 0.00 0.00 0.00 86 1015.3
20260507071547 37 0.0 2.0 0.00 0.00 0.00 84 1015.3
20260507070046 37 0.0 2.0 0.00 0.00 0.00 83 1015.3
20260507064559 37 0.0 3.0 0.00 0.00 0.00 82 1015.4
20260507063052 38 0.0 3.0 0.00 0.00 0.00 82 1015.4
20260507061541 38 0.0 4.0 0.00 0.00 0.00 82 1015.4
20260507060038 38 0.0 4.0 0.00 0.00 0.00 82 1015.4
20260507054536 39 0.0 3.0 0.00 0.00 0.00 82 1015.5
20260507053036 40 0.0 2.0 0.00 0.00 0.00 83 1015.6
20260507051531 40 0.0 2.0 0.00 0.00 0.00 83 1015.5
20260507050032 41 0.0 1.0 0.00 0.00 0.00 79 1015.5
20260507044527 41 0.0 2.0 0.00 0.00 0.00 75 1015.5
20260507043030 42 0.0 2.0 0.00 0.00 0.00 72 1015.5
20260507041531 43 0.0 2.0 0.00 0.00 0.00 71 1015.4
20260507040026 44 0.0 3.0 0.00 0.00 0.00 68 1015.5
20260507034532 44 0.0 4.0 0.00 0.00 0.00 65 1015.5
20260507033024 45 0.0 4.0 0.00 0.00 0.00 63 1015.4
20260507031523 46 0.0 6.0 0.00 0.00 0.00 62 1015.4
20260507030024 46 0.0 6.0 0.00 0.00 0.00 61 1015.4
20260507024520 47 0.0 7.0 0.00 0.00 0.00 60 1015.2
20260507023019 47 0.0 8.0 0.00 0.00 0.00 59 1015.1
20260507021518 48 0.0 10.0 0.00 0.00 0.00 59 1014.9
20260507020015 49 0.0 9.0 0.00 0.00 0.00 58 1014.6
20260507014517 49 0.0 11.0 0.00 0.00 0.00 57 1014.4
20260507013014 50 0.0 7.0 0.00 0.00 0.00 56 1014.2
20260507011512 51 0.0 7.0 0.00 0.00 0.00 55 1014.1
20260507010026 52 0.0 9.0 0.00 0.00 0.00 54 1014.0
20260507004510 52 0.0 13.0 0.00 0.00 0.00 51 1013.9
20260507003010 53 0.0 13.0 0.00 0.00 0.00 52 1013.8
20260507001509 53 0.0 10.0 0.00 0.00 0.00 52 1013.7
20260507000009 54 0.0 11.0 0.00 0.00 0.00 49 1013.6
20260506234513 54 0.0 13.0 0.00 0.00 0.00 47 1013.5
20260506233008 55 0.0 16.0 0.00 0.00 0.00 49 1013.6
20260506231507 55 0.0 16.0 0.00 0.00 0.00 48 1013.5
20260506230006 56 0.0 17.0 0.00 0.00 0.00 47 1013.3
20260506224516 56 0.0 20.0 0.00 0.00 0.00 47 1013.3
20260506223006 56 0.0 18.0 0.00 0.00 0.00 49 1013.4
20260506221504 56 0.0 15.0 0.00 0.00 0.00 49 1013.4
20260506220012 57 0.0 18.0 0.00 0.00 0.00 50 1013.3
20260506214504 57 0.0 15.0 0.00 0.00 0.00 50 1013.2
20260506213003 57 0.0 22.0 0.00 0.00 0.00 50 1013.1
20260506211507 57 0.0 15.0 0.00 0.00 0.00 50 1013.2
20260506210004 57 0.0 16.0 0.00 0.00 0.00 49 1013.3
20260506204502 56 0.0 18.0 0.00 0.00 0.00 50 1013.3
20260506203001 56 0.0 15.0 0.00 0.00 0.00 50 1013.4
20260506201502 56 0.0 16.0 0.00 0.00 0.00 48 1013.6
20260506200004 56 0.0 12.0 0.00 0.00 0.00 50 1013.7
20260506194604 56 0.0 12.0 0.00 0.00 0.00 53 1013.7
20260506193001 55 0.0 9.0 0.00 0.00 0.00 49 1013.7
20260506191600 56 0.0 15.0 0.00 0.00 0.00 48 1013.7
20260506190100 57 0.0 15.0 0.00 0.00 0.00 49 1013.8
20260506184558 58 0.0 16.0 0.00 0.00 0.00 50 1013.6
20260506183103 57 0.0 14.0 0.00 0.00 0.00 47 1013.7
20260506181625 59 0.0 17.0 0.00 0.00 0.00 48 1013.9
20260506180058 59 0.0 10.0 0.00 0.00 0.00 47 1013.9
20260506174554 58 0.0 9.0 0.00 0.00 0.00 44 1014.1
20260506173120 58 0.0 14.0 0.00 0.00 0.00 48 1014.2
20260506171556 58 0.0 4.0 0.00 0.00 0.00 45 1014.1
20260506170058 57 0.0 10.0 0.00 0.00 0.00 50 1014.0
20260506164547 57 0.0 6.0 0.00 0.00 0.00 45 1013.9
20260506163044 56 0.0 7.0 0.00 0.00 0.00 50 1013.9
20260506161539 54 0.0 6.0 0.00 0.00 0.00 52 1014.0
20260506160041 54 0.0 4.0 0.00 0.00 0.00 51 1014.0
20260506154534 53 0.0 5.0 0.00 0.00 0.00 51 1014.0
20260506153032 52 0.0 5.0 0.00 0.00 0.00 57 1014.0
20260506151530 51 0.0 4.0 0.00 0.00 0.00 58 1014.0
20260506150026 51 0.0 0.0 0.00 0.00 0.00 60 1014.1
20260506144523 50 0.0 0.0 0.00 0.00 0.00 59 1014.2
20260506143021 49 0.0 0.0 0.00 0.00 0.00 63 1014.2